User: anonymous   Login
Location: Caltech
(34.1382°N, 118.1253°W)
Time: 00:21:25
(UTC-07:00)
Language:

NOSS 3-4 (C) - Orbit

View from above orbital plane
View from above orbital plane
View from above satellite
View from above satellite

Ground track
Ground track

The orbit data is extracted from the following two-line orbital elements,

1 31708U 07027C   16125.87981707 0.00000000  00000-0  00000-0 0    00
2 31708  63.4030  44.3417 0156000  25.9784 334.0216 13.40707473    02
Epoch (UTC): 04 May 2016 21:06:56
Eccentricity: 0.0156000
inclination: 63.4030°
perigee height: 990 km
apogee height: 1223 km
right ascension of ascending node: 44.3417°
argument of perigee: 25.9784°
revolutions per day: 13.40707473
mean anomaly at epoch: 334.0216°
orbit number at epoch: 0

The dashed part of the orbit path shows where the satellite is in the earth's shadow,  

DLR